Weather in Auezov

Kazakhstan     49˚42′58″N   81˚35′19″E
temp.,
°C
wind,
m/s
gust,
m/s
humid.,
%
clouds,
%
prec.,
mm/h
press.,
hPa
HPBL,
m
3 december, thu
thu300:00−20˚ene11850 0.0 104420
03:00−20˚ne11840 0.0 104320
06:00−20˚ne11830 0.0 104320
09:00−19˚ene11770 0.0 104120
12:00−14˚ne11740 0.0 103920
15:00−14˚nne11670 0.0 103820
18:00−16˚e12610 0.0 103820
21:00−14˚ese22590 0.0 103720
4 december, fri
fri400:00−13˚se23610 0.0 103621
03:00−13˚ese23610 0.0 103421
06:00−13˚ese236215 0.0 103421
09:00−12˚ese236694 0.0 103322
12:00−8˚ese237596 0.0 103297
15:00−7˚se31090100 0.1 1031570
18:00−8˚se31094100 0.4 1032443
21:00−8˚ese3687100 0.2 1033143
5 december, sat
sat500:00−9˚ese348698 0.2 103362
03:00−10˚ese338094 0.0 103431
06:00−11˚se227997 0.0 103521
09:00−13˚sse117639 0.0 103621
12:00−10˚ne117935 0.0 103621
15:00−11˚ne118018 0.0 103721
18:00−14˚nw118517 0.0 103820
21:00−15˚ne11870 0.0 103920
6 december, sun
sun600:00−15˚ne11810 0.0 103920
03:00−16˚n11820 0.0 104020
06:00−17˚nnw11831 0.0 104020
09:00−16˚nne118138 0.0 104220
12:00−13˚n018326 0.0 104220
15:00−14˚nnw128334 0.0 104220
18:00−17˚n118743 0.0 104220
21:00−17˚ese0085100 0.0 104320
7 december, mon
mon700:00−17˚ese018498 0.0 104220
03:00−17˚e118386 0.0 104120
06:00−18˚e008368 0.0 104020
09:00−17˚e118016 0.0 104020
12:00−13˚ne11818 0.0 103720
15:00−14˚nne11800 0.0 103621
18:00−16˚nne11800 0.0 103620
21:00−17˚ene01780 0.0 103520